Simultaneous Nadir Overpasses (SNOs) Predictions

Prediction of SNOs between AQUA and NPP Satellite Orbit:

Table of predicted SNOs for the next 14.0 days since TLE Epoch: 11/22/2019
Index Date (AQUA) Time (AQUA) Lat,Lon (AQUA) SZA (AQUA ) Date (NPP) Time (NPP) Lat,Lon (NPP) SZA (NPP ) Distance(km) Time Diff (sec)
1 11/25/2019 05:32:18 75.16, -26.43 117.52 11/25/2019 05:31:10 75.16, -26.41 117.58 0.58 68
2 11/25/2019 06:21:22 -76.31, 144.62 63.68 11/25/2019 06:21:31 -76.31, 144.63 63.69 0.51 9
3 11/27/2019 21:48:40 75.44, 90.21 117.78 11/27/2019 21:47:57 75.43, 90.18 117.83 0.96 43
4 11/27/2019 22:37:44 -76.58, -98.62 63.42 11/27/2019 22:38:18 -76.58, -98.63 63.45 0.22 34
5 11/30/2019 14:05:02 75.76,-152.99 117.94 11/30/2019 14:04:44 75.75,-153.05 117.98 1.98 18
6 11/30/2019 14:54:06 -76.88, 18.32 63.26 11/30/2019 14:55:05 -76.88, 18.30 63.31 0.45 59
7 12/03/2019 05:32:19 -75.04, 153.24 60.87 12/03/2019 05:31:09 -75.03, 153.22 60.80 0.55 70
8 12/03/2019 06:21:23 76.11, -36.01 118.02 12/03/2019 06:21:30 76.10, -36.10 118.03 2.48 7
9 12/05/2019 21:48:37 -75.54, -89.48 60.98 12/05/2019 21:47:52 -75.54, -89.49 60.94 0.36 45




NCC Satellite Simultaneous Nadir Overpasses (SNOs) Prediction Service
